Location: Andiroba
(19.8650°S, 43.9258°W)
Time: 01:12:10
(UTC+00:00)

Cosmos 2369 Rocket - Pass Details

Date: 15 June 2024
Orbit: 828 x 852 km, 71.0° (Epoch: 24 July)

Event Time Altitude Azimuth Distance (km) Brightness Sun altitude
Exits shadow 08:39:49 12° 225° (SW) 2,331 3.9 -11.3°
Maximum altitude 08:44:16 30° 283° (WNW) 1,452 3.0 -10.4°
Drops below altitude 10° 08:49:06 10° 343° (NNW) 2,433 4.7 -9.3°
Sets 08:51:46 0° 353° (N) 3,356 5.5 -8.7°
